| time (UTC) | temp C | wind direction | speed KPH | gust KPH | rain 1hr cm | rain 24hr cm | rain mn cm | humidity % | barometer mb |
| 20260508211349 | 11 | 263 | 0.0 | 0.0 | 0.00 | 0.00 | 0.00 | 91 | 1029.6 |
| 20260508210839 | 11 | 263 | 0.0 | 0.0 | 0.00 | 0.00 | 0.00 | 91 | 1029.6 |
| 20260508210322 | 11 | 263 | 0.0 | 0.0 | 0.00 | 0.00 | 0.00 | 91 | 1029.6 |
| 20260508205158 | 11 | 263 | 0.0 | 0.0 | 0.00 | 0.00 | 0.00 | 91 | 1029.5 |
| 20260508204643 | 11 | 263 | 0.0 | 0.0 | 0.00 | 0.00 | 0.00 | 90 | 1029.5 |
| 20260508204139 | 11 | 263 | 0.0 | 0.0 | 0.00 | 0.00 | 0.00 | 91 | 1029.4 |
| 20260508203633 | 11 | 263 | 0.0 | 0.0 | 0.00 | 0.00 | 0.00 | 91 | 1029.4 |
| 20260508203114 | 11 | 263 | 0.0 | 0.0 | 0.00 | 0.00 | 0.00 | 91 | 1029.4 |
| 20260508201938 | 12 | 263 | 0.0 | 0.0 | 0.00 | 0.00 | 0.00 | 90 | 1029.2 |
| 20260508201429 | 12 | 263 | 0.0 | 0.0 | 0.00 | 0.00 | 0.00 | 91 | 1029.2 |
| 20260508200914 | 12 | 263 | 0.0 | 0.0 | 0.00 | 0.00 | 0.00 | 91 | 1029.1 |
| 20260508200359 | 12 | 263 | 0.0 | 0.0 | 0.00 | 0.00 | 0.00 | 91 | 1029.1 |
| 20260508195908 | 12 | 263 | 0.0 | 0.0 | 0.00 | 0.00 | 0.00 | 91 | 1029.1 |
| 20260508195412 | 12 | 263 | 0.0 | 0.0 | 0.00 | 0.00 | 0.00 | 91 | 1029.0 |
| 20260508194900 | 12 | 263 | 0.0 | 0.0 | 0.00 | 0.00 | 0.00 | 91 | 1029.0 |
| 20260508194405 | 12 | 263 | 0.0 | 0.0 | 0.00 | 0.00 | 0.00 | 91 | 1029.0 |
| 20260508193845 | 12 | 263 | 0.0 | 6.4 | 0.00 | 0.00 | 0.00 | 91 | 1029.0 |
| 20260508193340 | 12 | 263 | 0.0 | 6.4 | 0.00 | 0.00 | 0.00 | 91 | 1029.0 |
| 20260508192834 | 12 | 263 | 0.0 | 0.0 | 0.00 | 0.00 | 0.00 | 91 | 1028.9 |
| 20260508192328 | 12 | 263 | 0.0 | 0.0 | 0.00 | 0.00 | 0.00 | 91 | 1028.9 |
| 20260508191813 | 12 | 263 | 0.0 | 0.0 | 0.00 | 0.00 | 0.00 | 91 | 1028.9 |
| 20260508191255 | 12 | 263 | 0.0 | 0.0 | 0.00 | 0.00 | 0.00 | 91 | 1028.9 |
| 20260508190753 | 12 | 263 | 0.0 | 0.0 | 0.00 | 0.00 | 0.00 | 91 | 1028.9 |
| 20260508185626 | 12 | 263 | 0.0 | 0.0 | 0.00 | 0.00 | 0.00 | 91 | 1028.8 |
| 20260508185130 | 12 | 263 | 0.0 | 0.0 | 0.00 | 0.00 | 0.00 | 91 | 1028.8 |
| 20260508184622 | 12 | 263 | 0.0 | 0.0 | 0.00 | 0.00 | 0.00 | 91 | 1028.8 |
| 20260508184131 | 12 | 263 | 0.0 | 0.0 | 0.00 | 0.00 | 0.00 | 91 | 1028.9 |
| 20260508183626 | 12 | 263 | 0.0 | 0.0 | 0.00 | 0.00 | 0.00 | 91 | 1028.9 |
| 20260508183129 | 12 | 263 | 0.0 | 0.0 | 0.00 | 0.00 | 0.00 | 91 | 1028.9 |
| 20260508182006 | 12 | 263 | 0.0 | 0.0 | 0.00 | 0.00 | 0.00 | 90 | 1029.0 |
| 20260508181506 | 12 | 263 | 0.0 | 0.0 | 0.00 | 0.00 | 0.00 | 90 | 1029.0 |
| 20260508181003 | 12 | 263 | 0.0 | 0.0 | 0.00 | 0.00 | 0.00 | 90 | 1029.0 |
| 20260508180447 | 12 | 263 | 0.0 | 0.0 | 0.00 | 0.00 | 0.00 | 90 | 1029.0 |
| 20260508175948 | 12 | 263 | 0.0 | 0.0 | 0.00 | 0.00 | 0.00 | 90 | 1029.0 |
| 20260508175443 | 12 | 263 | 0.0 | 0.0 | 0.00 | 0.00 | 0.00 | 90 | 1029.1 |
| 20260508174947 | 12 | 263 | 0.0 | 0.0 | 0.00 | 0.00 | 0.00 | 90 | 1029.1 |
| 20260508173805 | 12 | 263 | 0.0 | 0.0 | 0.00 | 0.00 | 0.00 | 90 | 1029.3 |
| 20260508172635 | 12 | 263 | 0.0 | 0.0 | 0.00 | 0.00 | 0.00 | 90 | 1029.2 |
| 20260508172145 | 12 | 263 | 0.0 | 0.0 | 0.00 | 0.00 | 0.00 | 90 | 1029.2 |
| 20260508171649 | 12 | 263 | 0.0 | 0.0 | 0.00 | 0.00 | 0.00 | 90 | 1029.2 |
| 20260508170519 | 12 | 263 | 0.0 | 0.0 | 0.00 | 0.00 | 0.00 | 90 | 1029.1 |
| 20260508165347 | 12 | 263 | 0.0 | 0.0 | 0.00 | 0.00 | 0.00 | 90 | 1029.1 |
| 20260508164838 | 12 | 263 | 1.6 | 4.8 | 0.00 | 0.00 | 0.00 | 90 | 1029.1 |
| 20260508164342 | 12 | 263 | 1.6 | 4.8 | 0.00 | 0.00 | 0.00 | 90 | 1029.0 |
| 20260508163826 | 12 | 263 | 1.6 | 4.8 | 0.00 | 0.00 | 0.00 | 90 | 1029.0 |
| 20260508163328 | 11 | 263 | 1.6 | 4.8 | 0.00 | 0.00 | 0.00 | 90 | 1029.0 |
| 20260508162142 | 11 | 263 | 1.6 | 3.2 | 0.00 | 0.00 | 0.00 | 89 | 1029.1 |
| 20260508160353 | 11 | 263 | 0.0 | 1.6 | 0.00 | 0.00 | 0.00 | 89 | 1029.2 |
| 20260508155227 | 11 | 263 | 0.0 | 3.2 | 0.00 | 0.00 | 0.00 | 89 | 1029.2 |
| 20260508154720 | 11 | 263 | 0.0 | 3.2 | 0.00 | 0.00 | 0.00 | 89 | 1029.2 |
| 20260508154230 | 11 | 263 | 0.0 | 0.0 | 0.00 | 0.00 | 0.00 | 89 | 1029.3 |
| 20260508153714 | 11 | 263 | 0.0 | 0.0 | 0.00 | 0.00 | 0.00 | 89 | 1029.3 |
| 20260508153202 | 11 | 263 | 0.0 | 0.0 | 0.00 | 0.00 | 0.00 | 89 | 1029.3 |
| 20260508152653 | 11 | 263 | 0.0 | 0.0 | 0.00 | 0.00 | 0.00 | 88 | 1029.5 |
| 20260508152153 | 11 | 263 | 0.0 | 0.0 | 0.00 | 0.00 | 0.00 | 88 | 1029.5 |
| 20260508151638 | 11 | 263 | 0.0 | 0.0 | 0.00 | 0.00 | 0.00 | 88 | 1029.5 |
| 20260508151146 | 11 | 263 | 0.0 | 0.0 | 0.00 | 0.00 | 0.00 | 88 | 1029.5 |
| 20260508150648 | 11 | 263 | 0.0 | 0.0 | 0.00 | 0.00 | 0.00 | 88 | 1029.5 |
| 20260508145530 | 12 | 263 | 0.0 | 0.0 | 0.00 | 0.00 | 0.00 | 88 | 1029.5 |
| 20260508145031 | 12 | 263 | 0.0 | 0.0 | 0.00 | 0.00 | 0.00 | 88 | 1029.5 |
| 20260508144531 | 12 | 263 | 0.0 | 0.0 | 0.00 | 0.00 | 0.00 | 88 | 1029.5 |
| 20260508144027 | 12 | 263 | 0.0 | 0.0 | 0.00 | 0.00 | 0.00 | 87 | 1029.6 |
| 20260508143526 | 12 | 263 | 0.0 | 0.0 | 0.00 | 0.00 | 0.00 | 87 | 1029.6 |
| 20260508142401 | 12 | 263 | 0.0 | 0.0 | 0.00 | 0.00 | 0.00 | 87 | 1029.6 |
| 20260508141854 | 12 | 263 | 0.0 | 0.0 | 0.00 | 0.00 | 0.00 | 87 | 1029.6 |
| 20260508141400 | 12 | 263 | 0.0 | 0.0 | 0.00 | 0.00 | 0.00 | 87 | 1029.6 |
| 20260508135606 | 12 | 263 | 0.0 | 0.0 | 0.00 | 0.00 | 0.00 | 87 | 1029.7 |
| 20260508135114 | 12 | 263 | 0.0 | 3.2 | 0.00 | 0.00 | 0.00 | 87 | 1029.7 |
| 20260508134554 | 12 | 263 | 0.0 | 3.2 | 0.00 | 0.00 | 0.00 | 87 | 1029.7 |
| 20260508134100 | 12 | 263 | 0.0 | 3.2 | 0.00 | 0.00 | 0.00 | 86 | 1030.0 |
| 20260508133549 | 12 | 263 | 0.0 | 0.0 | 0.00 | 0.00 | 0.00 | 86 | 1030.0 |
| 20260508133036 | 12 | 263 | 0.0 | 0.0 | 0.00 | 0.00 | 0.00 | 86 | 1030.0 |
| 20260508132528 | 12 | 263 | 0.0 | 0.0 | 0.00 | 0.00 | 0.00 | 86 | 1030.1 |
| 20260508132035 | 12 | 263 | 0.0 | 0.0 | 0.00 | 0.00 | 0.00 | 86 | 1030.1 |
| 20260508130908 | 12 | 263 | 0.0 | 4.8 | 0.00 | 0.00 | 0.00 | 86 | 1030.1 |
| 20260508130403 | 12 | 263 | 0.0 | 4.8 | 0.00 | 0.00 | 0.00 | 86 | 1030.1 |
| 20260508125854 | 12 | 263 | 0.0 | 3.2 | 0.00 | 0.00 | 0.00 | 85 | 1030.1 |
| 20260508125357 | 12 | 263 | 0.0 | 1.6 | 0.00 | 0.00 | 0.00 | 85 | 1030.1 |
| 20260508124224 | 12 | 263 | 0.0 | 4.8 | 0.00 | 0.00 | 0.00 | 85 | 1030.1 |
| 20260508123725 | 12 | 263 | 1.6 | 4.8 | 0.00 | 0.00 | 0.00 | 85 | 1030.1 |
| 20260508123228 | 13 | 263 | 1.6 | 4.8 | 0.00 | 0.00 | 0.00 | 85 | 1030.1 |
| 20260508122728 | 13 | 263 | 0.0 | 4.8 | 0.00 | 0.00 | 0.00 | 85 | 1030.1 |
| 20260508122214 | 13 | 263 | 0.0 | 3.2 | 0.00 | 0.00 | 0.00 | 84 | 1030.1 |
| 20260508121716 | 13 | 263 | 1.6 | 3.2 | 0.00 | 0.00 | 0.00 | 84 | 1030.1 |
| 20260508121216 | 13 | 263 | 1.6 | 3.2 | 0.00 | 0.00 | 0.00 | 84 | 1030.1 |
| 20260508120712 | 13 | 263 | 0.0 | 3.2 | 0.00 | 0.00 | 0.00 | 83 | 1030.1 |
| 20260508114934 | 13 | 263 | 0.0 | 1.6 | 0.00 | 0.00 | 0.00 | 83 | 1030.1 |
| 20260508114440 | 13 | 263 | 0.0 | 0.0 | 0.00 | 0.00 | 0.00 | 83 | 1030.1 |
| 20260508113926 | 13 | 263 | 0.0 | 3.2 | 0.00 | 0.00 | 0.00 | 82 | 1030.1 |
| 20260508112807 | 13 | 263 | 0.0 | 3.2 | 0.00 | 0.00 | 0.00 | 81 | 1030.1 |
| 20260508112253 | 13 | 263 | 0.0 | 6.4 | 0.00 | 0.00 | 0.00 | 81 | 1030.1 |
| 20260508111736 | 13 | 263 | 0.0 | 6.4 | 0.00 | 0.00 | 0.00 | 81 | 1030.1 |
| 20260508110604 | 14 | 263 | 3.2 | 8.0 | 0.00 | 0.00 | 0.00 | 81 | 1030.1 |
| 20260508110112 | 14 | 263 | 3.2 | 8.0 | 0.00 | 0.00 | 0.00 | 81 | 1030.1 |
| 20260508105608 | 14 | 263 | 3.2 | 8.0 | 0.00 | 0.00 | 0.00 | 80 | 1030.1 |
| 20260508105049 | 14 | 263 | 3.2 | 6.4 | 0.00 | 0.00 | 0.00 | 80 | 1030.1 |
| 20260508104531 | 14 | 263 | 3.2 | 6.4 | 0.00 | 0.00 | 0.00 | 80 | 1030.1 |
| 20260508104011 | 14 | 263 | 1.6 | 8.0 | 0.00 | 0.00 | 0.00 | 79 | 1030.1 |
| 20260508103501 | 14 | 263 | 3.2 | 8.0 | 0.00 | 0.00 | 0.00 | 79 | 1030.1 |
| 20260508102949 | 15 | 263 | 4.8 | 8.0 | 0.00 | 0.00 | 0.00 | 79 | 1030.1 |
| 20260508102457 | 15 | 263 | 4.8 | 8.0 | 0.00 | 0.00 | 0.00 | 79 | 1030.1 |
| 20260508101951 | 15 | 263 | 3.2 | 12.9 | 0.00 | 0.00 | 0.00 | 78 | 1030.1 |
| 20260508101438 | 15 | 263 | 3.2 | 12.9 | 0.00 | 0.00 | 0.00 | 78 | 1030.1 |
| 20260508100934 | 15 | 263 | 3.2 | 12.9 | 0.00 | 0.00 | 0.00 | 78 | 1030.0 |
| 20260508095823 | 15 | 263 | 3.2 | 9.7 | 0.00 | 0.00 | 0.00 | 78 | 1030.0 |
| 20260508095325 | 15 | 263 | 3.2 | 8.0 | 0.00 | 0.00 | 0.00 | 78 | 1030.0 |
| 20260508094833 | 15 | 263 | 1.6 | 8.0 | 0.00 | 0.00 | 0.00 | 77 | 1030.0 |
| 20260508094332 | 15 | 263 | 1.6 | 6.4 | 0.00 | 0.00 | 0.00 | 77 | 1029.9 |
| 20260508093817 | 15 | 263 | 0.0 | 6.4 | 0.00 | 0.00 | 0.00 | 77 | 1029.9 |
| 20260508093301 | 15 | 263 | 0.0 | 6.4 | 0.00 | 0.00 | 0.00 | 77 | 1029.9 |
| 20260508092752 | 15 | 263 | 0.0 | 3.2 | 0.00 | 0.00 | 0.00 | 77 | 1029.6 |
| 20260508091610 | 15 | 263 | 0.0 | 4.8 | 0.00 | 0.00 | 0.00 | 77 | 1029.6 |
| 20260508091059 | 15 | 263 | 0.0 | 4.8 | 0.00 | 0.00 | 0.00 | 78 | 1029.6 |
| 20260508090601 | 15 | 263 | 1.6 | 9.7 | 0.00 | 0.00 | 0.00 | 78 | 1029.6 |
| 20260508090059 | 15 | 263 | 1.6 | 9.7 | 0.00 | 0.00 | 0.00 | 78 | 1029.6 |
| 20260508084949 | 15 | 263 | 1.6 | 6.4 | 0.00 | 0.00 | 0.00 | 78 | 1029.6 |
| 20260508084437 | 15 | 263 | 1.6 | 6.4 | 0.00 | 0.00 | 0.00 | 78 | 1029.6 |
| 20260508083319 | 15 | 263 | 1.6 | 8.0 | 0.00 | 0.00 | 0.00 | 79 | 1029.5 |
| 20260508082811 | 15 | 263 | 1.6 | 8.0 | 0.00 | 0.00 | 0.00 | 79 | 1029.5 |
| 20260508082257 | 15 | 263 | 1.6 | 12.9 | 0.00 | 0.00 | 0.00 | 79 | 1029.5 |
| 20260508081738 | 15 | 263 | 3.2 | 12.9 | 0.00 | 0.00 | 0.00 | 79 | 1029.5 |
| 20260508081223 | 15 | 263 | 3.2 | 12.9 | 0.00 | 0.00 | 0.00 | 79 | 1029.2 |
| 20260508075426 | 16 | 263 | 4.8 | 14.5 | 0.00 | 0.00 | 0.00 | 78 | 1029.1 |
| 20260508074919 | 16 | 263 | 4.8 | 17.7 | 0.00 | 0.00 | 0.00 | 77 | 1029.1 |
| 20260508074426 | 16 | 263 | 6.4 | 17.7 | 0.00 | 0.00 | 0.00 | 77 | 1029.1 |
| 20260508073908 | 16 | 263 | 6.4 | 17.7 | 0.00 | 0.00 | 0.00 | 76 | 1029.0 |
| 20260508072737 | 16 | 263 | 4.8 | 16.1 | 0.00 | 0.00 | 0.00 | 77 | 1029.0 |
| 20260508072237 | 16 | 263 | 6.4 | 20.9 | 0.00 | 0.00 | 0.00 | 77 | 1029.0 |
| 20260508071728 | 16 | 263 | 8.0 | 20.9 | 0.00 | 0.00 | 0.00 | 77 | 1029.0 |
| 20260508071215 | 16 | 263 | 8.0 | 20.9 | 0.00 | 0.00 | 0.00 | 76 | 1029.0 |
| 20260508070056 | 16 | 263 | 6.4 | 16.1 | 0.00 | 0.00 | 0.00 | 78 | 1029.0 |
| 20260508065545 | 16 | 263 | 8.0 | 17.7 | 0.00 | 0.00 | 0.00 | 78 | 1029.1 |
| 20260508064408 | 16 | 263 | 6.4 | 17.7 | 0.00 | 0.00 | 0.00 | 76 | 1029.1 |
| 20260508063902 | 16 | 263 | 6.4 | 16.1 | 0.00 | 0.00 | 0.00 | 74 | 1029.0 |
| 20260508063355 | 17 | 263 | 4.8 | 16.1 | 0.00 | 0.00 | 0.00 | 74 | 1029.0 |
| 20260508062842 | 17 | 263 | 4.8 | 14.5 | 0.00 | 0.00 | 0.00 | 74 | 1029.0 |
| 20260508062324 | 17 | 263 | 6.4 | 22.5 | 0.00 | 0.00 | 0.00 | 76 | 1029.0 |
| 20260508061819 | 17 | 263 | 6.4 | 22.5 | 0.00 | 0.00 | 0.00 | 76 | 1029.0 |
| 20260508061310 | 17 | 263 | 8.0 | 22.5 | 0.00 | 0.00 | 0.00 | 76 | 1029.0 |
| 20260508060157 | 17 | 263 | 11.3 | 22.5 | 0.00 | 0.00 | 0.00 | 76 | 1029.0 |
| 20260508055042 | 17 | 263 | 12.9 | 22.5 | 0.00 | 0.00 | 0.00 | 77 | 1029.0 |
| 20260508053900 | 16 | 263 | 9.7 | 20.9 | 0.00 | 0.00 | 0.00 | 76 | 1029.0 |
| 20260508053345 | 16 | 263 | 9.7 | 20.9 | 0.00 | 0.00 | 0.00 | 75 | 1029.0 |
| 20260508052840 | 16 | 263 | 9.7 | 20.9 | 0.00 | 0.00 | 0.00 | 76 | 1029.0 |
| 20260508051716 | 17 | 263 | 6.4 | 19.3 | 0.00 | 0.00 | 0.00 | 76 | 1029.0 |
| 20260508051201 | 17 | 263 | 8.0 | 22.5 | 0.00 | 0.00 | 0.00 | 76 | 1029.0 |
| 20260508050655 | 17 | 263 | 8.0 | 22.5 | 0.00 | 0.00 | 0.00 | 75 | 1029.0 |
| 20260508050157 | 17 | 263 | 9.7 | 22.5 | 0.00 | 0.00 | 0.00 | 75 | 1029.0 |
| 20260508045021 | 17 | 263 | 9.7 | 20.9 | 0.00 | 0.00 | 0.00 | 73 | 1029.0 |
| 20260508043227 | 17 | 263 | 6.4 | 19.3 | 0.00 | 0.00 | 0.00 | 71 | 1029.0 |
| 20260508041447 | 17 | 263 | 6.4 | 19.3 | 0.00 | 0.00 | 0.00 | 71 | 1029.2 |
| 20260508040928 | 17 | 263 | 9.7 | 19.3 | 0.00 | 0.00 | 0.00 | 72 | 1029.3 |
| 20260508040415 | 17 | 263 | 8.0 | 19.3 | 0.00 | 0.00 | 0.00 | 74 | 1029.3 |
| 20260508035858 | 17 | 263 | 6.4 | 22.5 | 0.00 | 0.00 | 0.00 | 75 | 1029.5 |
| 20260508034723 | 16 | 263 | 8.0 | 22.5 | 0.00 | 0.00 | 0.00 | 78 | 1029.5 |
| 20260508034229 | 16 | 263 | 6.4 | 22.5 | 0.00 | 0.00 | 0.00 | 78 | 1029.6 |
| 20260508033734 | 16 | 263 | 6.4 | 17.7 | 0.00 | 0.00 | 0.00 | 80 | 1029.6 |
| 20260508033238 | 16 | 263 | 8.0 | 17.7 | 0.00 | 0.00 | 0.00 | 81 | 1029.6 |
| 20260508032732 | 16 | 263 | 8.0 | 17.7 | 0.00 | 0.00 | 0.00 | 83 | 1029.9 |
| 20260508032242 | 16 | 263 | 8.0 | 17.7 | 0.00 | 0.00 | 0.00 | 84 | 1029.9 |
| 20260508031731 | 16 | 263 | 8.0 | 16.1 | 0.00 | 0.00 | 0.00 | 86 | 1029.9 |
| 20260508030548 | 15 | 263 | 6.4 | 16.1 | 0.00 | 0.00 | 0.00 | 86 | 1030.1 |
| 20260508030041 | 15 | 263 | 8.0 | 22.5 | 0.00 | 0.00 | 0.00 | 85 | 1030.1 |
| 20260508025532 | 16 | 263 | 9.7 | 22.5 | 0.00 | 0.00 | 0.00 | 86 | 1030.1 |
| 20260508025026 | 16 | 263 | 9.7 | 22.5 | 0.00 | 0.00 | 0.00 | 85 | 1030.1 |
| 20260508024519 | 16 | 263 | 6.4 | 22.5 | 0.00 | 0.00 | 0.00 | 85 | 1030.1 |
| 20260508023959 | 16 | 263 | 4.8 | 20.9 | 0.00 | 0.00 | 0.00 | 86 | 1030.2 |
| 20260508023456 | 16 | 263 | 4.8 | 20.9 | 0.00 | 0.00 | 0.00 | 86 | 1030.2 |
| 20260508022337 | 15 | 263 | 6.4 | 17.7 | 0.00 | 0.00 | 0.00 | 87 | 1030.6 |
| 20260508021829 | 15 | 263 | 4.8 | 14.5 | 0.00 | 0.00 | 0.00 | 88 | 1030.6 |
| 20260508021318 | 15 | 263 | 6.4 | 19.3 | 0.00 | 0.00 | 0.00 | 87 | 1030.6 |
| 20260508020802 | 15 | 263 | 6.4 | 20.9 | 0.00 | 0.00 | 0.00 | 87 | 1030.6 |
| 20260508015655 | 15 | 263 | 9.7 | 20.9 | 0.00 | 0.00 | 0.00 | 86 | 1030.7 |
| 20260508015202 | 15 | 263 | 8.0 | 20.9 | 0.00 | 0.00 | 0.00 | 86 | 1030.7 |
| 20260508014655 | 15 | 263 | 4.8 | 19.3 | 0.00 | 0.00 | 0.00 | 87 | 1030.7 |
| 20260508014155 | 15 | 263 | 6.4 | 19.3 | 0.00 | 0.00 | 0.00 | 87 | 1031.1 |
| 20260508013046 | 15 | 263 | 6.4 | 17.7 | 0.00 | 0.00 | 0.00 | 86 | 1031.1 |
| 20260508012535 | 15 | 263 | 6.4 | 19.3 | 0.00 | 0.00 | 0.00 | 87 | 1031.1 |
| 20260508012030 | 15 | 263 | 8.0 | 19.3 | 0.00 | 0.00 | 0.00 | 86 | 1031.1 |
| 20260508011528 | 15 | 263 | 8.0 | 19.3 | 0.00 | 0.00 | 0.00 | 86 | 1031.1 |
| 20260508011018 | 15 | 263 | 6.4 | 19.3 | 0.00 | 0.00 | 0.00 | 85 | 1031.1 |
| 20260508010506 | 15 | 263 | 6.4 | 12.9 | 0.00 | 0.00 | 0.00 | 86 | 1031.1 |
| 20260508005346 | 15 | 263 | 4.8 | 16.1 | 0.00 | 0.00 | 0.00 | 86 | 1031.1 |
| 20260508004837 | 15 | 263 | 4.8 | 16.1 | 0.00 | 0.00 | 0.00 | 86 | 1031.1 |
| 20260508004317 | 15 | 263 | 4.8 | 16.1 | 0.00 | 0.00 | 0.00 | 85 | 1031.1 |
| 20260508003804 | 15 | 263 | 4.8 | 14.5 | 0.00 | 0.00 | 0.00 | 85 | 1031.1 |
| 20260508003300 | 15 | 263 | 4.8 | 14.5 | 0.00 | 0.00 | 0.00 | 84 | 1031.1 |
| 20260508002800 | 15 | 263 | 3.2 | 9.7 | 0.00 | 0.00 | 0.00 | 84 | 1031.0 |
| 20260508002252 | 15 | 263 | 3.2 | 9.7 | 0.00 | 0.00 | 0.00 | 84 | 1031.0 |
| 20260508001757 | 15 | 263 | 3.2 | 9.7 | 0.00 | 0.00 | 0.00 | 84 | 1031.0 |
| 20260508001242 | 15 | 263 | 3.2 | 9.7 | 0.00 | 0.00 | 0.00 | 84 | 1031.1 |
| 20260508000726 | 15 | 263 | 3.2 | 9.7 | 0.00 | 0.00 | 0.00 | 84 | 1031.1 |
| 20260508000212 | 14 | 263 | 3.2 | 9.7 | 0.00 | 0.00 | 0.00 | 83 | 1031.1 |
| 20260507235656 | 14 | 263 | 3.2 | 9.7 | 0.00 | 0.00 | 0.00 | 82 | 1031.0 |
| 20260507235158 | 14 | 263 | 3.2 | 14.5 | 0.00 | 0.00 | 0.00 | 82 | 1031.0 |
| 20260507234036 | 14 | 263 | 4.8 | 14.5 | 0.00 | 0.00 | 0.00 | 81 | 1030.9 |
| 20260507233537 | 14 | 263 | 4.8 | 14.5 | 0.00 | 0.00 | 0.00 | 81 | 1030.9 |
| 20260507233032 | 14 | 263 | 3.2 | 12.9 | 0.00 | 0.00 | 0.00 | 81 | 1030.9 |
| 20260507232515 | 14 | 263 | 3.2 | 12.9 | 0.00 | 0.00 | 0.00 | 81 | 1030.7 |
| 20260507232011 | 14 | 263 | 6.4 | 12.9 | 0.00 | 0.00 | 0.00 | 80 | 1030.7 |
| 20260507231511 | 14 | 263 | 6.4 | 17.7 | 0.00 | 0.00 | 0.00 | 80 | 1030.7 |
| 20260507231018 | 15 | 263 | 6.4 | 17.7 | 0.00 | 0.00 | 0.00 | 79 | 1030.7 |
| 20260507230523 | 15 | 263 | 6.4 | 17.7 | 0.00 | 0.00 | 0.00 | 79 | 1030.7 |
| 20260507224907 | 15 | 263 | 3.2 | 8.0 | 0.00 | 0.00 | 0.00 | 77 | 1030.6 |
| 20260507224350 | 15 | 263 | 1.6 | 8.0 | 0.00 | 0.00 | 0.00 | 77 | 1030.4 |
| 20260507223838 | 15 | 263 | 3.2 | 8.0 | 0.00 | 0.00 | 0.00 | 77 | 1030.4 |
| 20260507223321 | 15 | 263 | 3.2 | 12.9 | 0.00 | 0.00 | 0.00 | 77 | 1030.4 |
| 20260507222822 | 15 | 263 | 3.2 | 12.9 | 0.00 | 0.00 | 0.00 | 77 | 1030.2 |
| 20260507222321 | 15 | 263 | 4.8 | 12.9 | 0.00 | 0.00 | 0.00 | 77 | 1030.2 |
| 20260507221819 | 15 | 263 | 3.2 | 11.3 | 0.00 | 0.00 | 0.00 | 77 | 1030.2 |
| 20260507221324 | 15 | 263 | 3.2 | 20.9 | 0.00 | 0.00 | 0.00 | 77 | 1030.1 |
| 20260507220814 | 15 | 263 | 3.2 | 20.9 | 0.00 | 0.00 | 0.00 | 77 | 1030.1 |
| 20260507220316 | 15 | 263 | 4.8 | 20.9 | 0.00 | 0.00 | 0.00 | 76 | 1030.1 |
| 20260507215759 | 15 | 263 | 3.2 | 20.9 | 0.00 | 0.00 | 0.00 | 76 | 1029.7 |
| 20260507215307 | 14 | 263 | 1.6 | 11.3 | 0.00 | 0.00 | 0.00 | 76 | 1029.7 |
| 20260507214806 | 14 | 263 | 3.2 | 11.3 | 0.00 | 0.00 | 0.00 | 76 | 1029.7 |
| 20260507214307 | 14 | 263 | 3.2 | 11.3 | 0.00 | 0.00 | 0.00 | 76 | 1029.6 |
| 20260507213753 | 14 | 263 | 3.2 | 11.3 | 0.00 | 0.00 | 0.00 | 76 | 1029.6 |
| 20260507213240 | 14 | 263 | 3.2 | 9.7 | 0.00 | 0.00 | 0.00 | 77 | 1029.6 |
| 20260507212721 | 14 | 263 | 1.6 | 6.4 | 0.00 | 0.00 | 0.00 | 77 | 1029.6 |
| 20260507212220 | 14 | 263 | 1.6 | 6.4 | 0.00 | 0.00 | 0.00 | 77 | 1029.6 |